[[{"header":{"parameterUnit":"m.s-1","parameterCategory":1,"la1":30.2991,"la2":30.254,"lo1":-89.0895,"lo2":-89.0444,"dy":0.0017,"dx":0.0017,"nx":28,"ny":28,"refTime":"2024-04-26T21:00:00:Z","depth":0,"parameterNumber":2,"parameterNumberName":"U-component_of_WINDS"},"data":[0,0,0,0,0,0,0,0,0,0,0,0,0,0,0,0,0,0,0,0,0,0,0,0,0,0,0,0,0,0,0,0,0,0,0,0,0,0,0,0,0,0,0,0,0,0,0,0,0,0,0,0,0,0,0,0,0,0,-5.5054,-5.5055,0,-5.5112,-5.5113,-5.5113,-5.5067,-5.5065,-5.5063,-5.5062,-5.5118,-5.5121,-5.5124,0,0,0,0,0,0,0,0,0,0,0,0,0,-5.4902,-5.4905,-5.5054,-5.5055,-5.5055,-5.5112,-5.5113,-5.5113,-5.5068,-5.5065,-5.5063,-5.5061,-5.5116,-5.512,-5.5124,0,0,0,0,0,0,0,0,0,0,0,0,0,-5.4965,-5.4906,-5.5054,-5.504,-5.5039,-5.5112,-5.5113,-5.5114,-5.5068,-5.5065,-5.5062,-5.506,-5.5115,-5.512,-5.5125,-5.5214,0,0,-5.514,-5.5142,0,0,0,0,0,0,0,0,-5.4961,-5.497,-5.5041,-5.5041,-5.504,-5.508,-5.5079,-5.5147,-5.5069,-5.5057,-5.5062,-5.5058,-5.5107,-5.5112,-5.513,-5.5216,-5.5219,-5.514,-5.5143,-5.5146,-5.5147,0,0,0,0,0,0,0,-5.4957,-5.4968,-5.5077,-5.5042,-5.5042,-5.503,-5.5035,-5.5092,-5.5097,-5.5058,-5.5055,-5.5062,-5.5106,-5.5125,-5.5131,-5.522,-5.514,-5.5145,-5.5148,-5.515,-5.5383,-5.5386,0,0,0,0,0,0,-5.4954,-5.4964,-5.5075,-5.5078,-5.4993,-5.5035,-5.5041,-5.507,-5.5097,-5.5098,-5.5065,-5.506,-5.5118,-5.5125,-5.5132,-5.5238,-5.5146,-5.515,-5.5153,-5.5379,-5.5383,-5.5387,0,0,0,0,0,0,-5.4951,-5.4965,-5.5073,-5.5021,-5.5033,-5.5041,-5.5073,-5.5072,-5.5091,-5.5102,-5.5103,-5.5083,-5.5116,-5.5125,-5.5194,-5.5239,-5.5152,-5.5157,-5.5376,-5.5381,-5.5385,-5.5449,0,0,0,0,0,0,-5.4947,-5.4964,-5.4998,-5.5022,-5.5036,-5.5134,-5.5076,-5.5076,-5.51,-5.5094,-5.5119,-5.5121,-5.5114,-5.5187,-5.5199,-5.5244,-5.5161,-5.5372,-5.5378,-5.5384,-5.5443,-5.5456,-5.5466,0,0,0,0,0,-5.4942,-5.5013,-5.5,-5.5013,-5.5079,-5.5137,-5.5145,-5.5137,-5.5104,-5.5138,-5.5145,-5.512,-5.5233,-5.5194,-5.5208,-5.5255,-5.5369,-5.5376,-5.5383,-5.5438,-5.5453,-5.5466,0,0,0,0,0,0,-5.4992,-5.5016,-5.5001,-5.5082,-5.5108,-5.5129,-5.5171,-5.5154,-5.5188,-5.5181,-5.517,-5.5176,-5.5248,-5.5259,-5.5215,-5.5343,-5.5295,-5.5306,-5.5332,-5.5347,-5.5359,-5.5353,-5.5165,0,0,0,0,0,-5.5013,-5.5059,-5.5076,-5.5146,-5.516,-5.5164,-5.5188,-5.5181,-5.5206,-5.5216,-5.5229,-5.5254,-5.5295,-5.5322,-5.5361,-5.5446,-5.545,-5.5485,-5.5497,-5.5506,-5.5514,-5.556,-5.5575,-5.5411,-5.5411,-5.541,0,0,-5.5056,-5.5074,-5.5103,-5.5157,-5.5176,-5.5222,-5.5173,-5.5224,-5.5258,-5.5224,-5.5289,-5.53,-5.5327,-5.5404,-5.5439,-5.5415,-5.5561,-5.5515,-5.5523,-5.5526,-5.5569,-5.5584,-5.5598,-5.5415,-5.5415,-5.5414,0,0,-5.5157,-5.5176,-5.5236,-5.5257,-5.5287,-5.529,-5.5305,-5.5329,-5.5335,-5.5401,-5.5376,-5.5417,-5.5488,-5.5509,-5.5528,-5.5641,-5.5618,-5.5654,-5.5713,-5.5758,-5.5771,-5.5782,-5.5821,-5.5835,-5.5662,-5.5663,-5.5663,0,-5.5205,-5.5275,-5.5269,-5.5323,-5.5347,-5.532,-5.538,-5.5401,-5.5441,-5.5458,-5.5432,-5.5522,-5.5538,-5.562,-5.5648,-5.5665,-5.5681,-5.5649,-5.577,-5.5781,-5.5792,-5.5828,-5.5843,-5.5667,-5.5666,-5.5666,-5.5665,0,-5.5333,-5.5383,-5.5428,-5.5469,-5.5499,-5.5555,-5.5557,-5.5588,-5.5578,-5.5584,-5.5652,-5.5671,-5.5713,-5.5733,-5.5724,-5.5814,-5.5798,-5.5772,-5.5723,-5.5811,-5.5846,-5.586,-5.5672,-5.5671,-5.567,-5.5669,0,0,-5.5464,-5.5504,-5.552,-5.5539,-5.5572,-5.5609,-5.5665,-5.5708,-5.5734,-5.5764,-5.581,-5.5872,-5.5848,-5.5871,-5.5864,-5.5904,-5.5991,-5.5872,-5.5873,-5.5892,-5.609,-5.6108,-5.6124,-5.5978,-5.598,-5.5982,-5.6087,0,-5.5566,-5.5664,-5.5661,-5.5751,-5.5796,-5.5774,-5.5822,-5.5847,-5.5855,-5.5894,-5.5901,-5.5945,-5.5911,-5.5925,-5.5963,-5.5972,-5.603,-5.5965,-5.6018,-5.602,-5.6009,-5.6143,-5.6162,-5.6259,-5.6101,-5.6103,-5.6105,0,-5.5696,-5.5732,-5.5828,-5.5855,-5.5874,-5.5917,-5.5957,-5.5995,-5.6023,-5.6026,-5.6053,-5.604,-5.6097,-5.605,-5.6127,-5.6083,-5.6105,-5.6113,-5.6117,-5.6119,-5.6066,-5.6146,-5.629,-5.6304,-5.6126,-5.6124,-5.6123,0,-5.578,-5.5852,-5.5919,-5.5936,-5.597,-5.6001,-5.6016,-5.6042,-5.6069,-5.6103,-5.612,-5.6161,-5.6182,-5.6214,-5.6213,-5.6179,-5.6291,-5.6244,-5.6293,-5.6294,-5.6315,-5.6313,-5.6462,-5.6334,-5.6334,-5.6334,-5.6333,0,-5.5892,-5.5951,-5.5957,-5.5998,-5.6064,-5.606,-5.6125,-5.6137,-5.6161,-5.6203,-5.6187,-5.6227,-5.6224,-5.6265,-5.6265,-5.6328,-5.6338,-5.6341,-5.634,-5.6341,-5.6341,-5.6353,-5.6346,-5.6338,-5.6337,-5.6336,-5.6335,0,-5.5995,-5.6002,-5.6073,-5.61,-5.6108,-5.6155,-5.6178,-5.6217,-5.6224,-5.6278,-5.629,-5.6301,-5.6348,-5.6351,-5.6405,-5.6405,-5.6482,-5.6474,-5.6472,-5.647,-5.6519,-5.6513,-5.6679,-5.67,-5.656,-5.6562,-5.6563,0,-5.6065,-5.611,-5.6142,-5.617,-5.6188,-5.6233,-5.626,-5.6259,-5.6288,-5.6325,-5.6359,-5.6405,-5.6441,-5.6518,-5.653,-5.6571,-5.6563,-5.6619,-5.6569,-5.6569,-5.6562,-5.6558,-5.6562,-5.6627,-5.6629,-5.663,-5.6631,0,-5.6187,-5.6189,-5.6229,-5.6272,-5.6305,-5.6338,-5.6369,-5.6392,-5.6395,-5.6429,-5.6478,-5.6506,-5.6562,-5.6608,-5.6649,-5.6664,-5.6648,-5.6648,-5.6661,-5.6661,-5.6657,-5.6658,-5.6496,-5.6643,-5.6642,-5.6641,-5.664,-5.664,-5.6274,-5.6313,-5.6343,-5.6389,-5.6412,-5.6442,-5.648,-5.6493,-5.6533,-5.658,-5.6577,-5.6631,-5.6659,-5.6713,-5.6732,-5.6773,-5.6754,-5.6774,-5.6778,-5.6783,-5.6787,-5.6653,-5.6781,-5.6781,-5.678,-5.678,-5.678,0,-5.6394,-5.6413,-5.6455,-5.65,-5.6536,-5.6521,-5.6554,-5.6585,-5.6633,-5.6661,-5.6698,-5.6754,-5.6799,-5.6816,-5.6859,-5.6889,-5.6883,-5.6901,-5.6897,-5.6901,-5.6802,-5.6786,-5.6905,-5.6905,-5.6905,-5.6905,-5.6905,-5.6905,-5.6461,-5.6526,-5.6532,-5.6609,-5.6627,-5.668,-5.67,-5.6728,-5.675,-5.6814,-5.6851,-5.6863,-5.6887,-5.6932,-5.6973,-5.6977,-5.6992,-5.7013,-5.7013,-5.692,-5.6908,-5.6895,-5.6879,-5.7017,-5.7017,-5.7108,-5.7109,-5.7109]},{"header":{"parameterUnit":"m.s-1","parameterCategory":1,"la1":30.2991,"la2":30.254,"lo1":-89.0895,"lo2":-89.0444,"dy":0.0017,"dx":0.0017,"nx":28,"ny":28,"refTime":"2024-04-26T21:00:00:Z","depth":0,"parameterNumber":3,"parameterNumberName":"V-component_of_WINDS"},"data":[0,0,0,0,0,0,0,0,0,0,0,0,0,0,0,0,0,0,0,0,0,0,0,0,0,0,0,0,0,0,0,0,0,0,0,0,0,0,0,0,0,0,0,0,0,0,0,0,0,0,0,0,0,0,0,0,0,0,4.1124,4.1124,0,4.1134,4.1134,4.1134,4.1123,4.1122,4.1122,4.1121,4.113,4.113,4.1131,0,0,0,0,0,0,0,0,0,0,0,0,0,4.1093,4.1093,4.1124,4.1124,4.1124,4.1134,4.1134,4.1134,4.1123,4.1122,4.1122,4.1121,4.1129,4.113,4.1131,0,0,0,0,0,0,0,0,0,0,0,0,0,4.1105,4.1093,4.1124,4.112,4.1119,4.1134,4.1134,4.1135,4.1123,4.1122,4.1122,4.1121,4.1129,4.113,4.1131,4.115,0,0,4.1134,4.1134,0,0,0,0,0,0,0,0,4.1104,4.1106,4.112,4.112,4.112,4.1127,4.1126,4.114,4.1123,4.1121,4.1121,4.1121,4.1129,4.113,4.1133,4.115,4.1151,4.1134,4.1134,4.1135,4.1135,0,0,0,0,0,0,0,4.1103,4.1105,4.1128,4.112,4.112,4.1117,4.1118,4.1129,4.1129,4.1121,4.1121,4.1122,4.1129,4.1132,4.1133,4.1151,4.1134,4.1135,4.1135,4.1136,4.1185,4.1186,0,0,0,0,0,0,4.1103,4.1105,4.1127,4.1128,4.111,4.1118,4.1119,4.1125,4.1128,4.1128,4.1123,4.1122,4.1131,4.1132,4.1133,4.1157,4.1135,4.1136,4.1136,4.1185,4.1185,4.1186,0,0,0,0,0,0,4.1103,4.1105,4.1127,4.1116,4.1119,4.1119,4.1126,4.1125,4.1129,4.113,4.1129,4.1127,4.1131,4.1132,4.1146,4.1157,4.1136,4.1137,4.1184,4.1185,4.1186,4.1203,0,0,0,0,0,0,4.1102,4.1105,4.1112,4.1117,4.112,4.114,4.1126,4.1126,4.1131,4.113,4.1133,4.1133,4.113,4.1145,4.1147,4.1158,4.1138,4.1183,4.1184,4.1186,4.1201,4.1204,4.1207,0,0,0,0,0,4.1101,4.1116,4.1113,4.1116,4.1129,4.1141,4.1142,4.114,4.1132,4.1139,4.114,4.1133,4.1156,4.1147,4.1149,4.116,4.1182,4.1184,4.1185,4.12,4.1204,4.1207,0,0,0,0,0,0,4.1111,4.1116,4.1113,4.113,4.1135,4.1139,4.1148,4.1143,4.115,4.1148,4.1144,4.1145,4.116,4.1161,4.1152,4.1179,4.1167,4.117,4.1178,4.1181,4.1184,4.1183,4.1139,0,0,0,0,0,4.1116,4.1126,4.1129,4.1144,4.1147,4.1147,4.1152,4.115,4.1155,4.1157,4.1158,4.1162,4.1171,4.1176,4.1183,4.1202,4.1202,4.121,4.1213,4.1215,4.1217,4.1228,4.1232,4.1192,4.1192,4.1192,0,0,4.1125,4.1129,4.1135,4.1147,4.115,4.1161,4.1149,4.116,4.1167,4.1158,4.1172,4.1173,4.1178,4.1195,4.1202,4.1196,4.1229,4.1218,4.122,4.122,4.123,4.1234,4.1237,4.1193,4.1193,4.1193,0,0,4.1147,4.1151,4.1164,4.1169,4.1175,4.1176,4.1179,4.1184,4.1185,4.1199,4.1192,4.1201,4.1215,4.1219,4.1223,4.1249,4.1243,4.1251,4.1266,4.1276,4.1279,4.1282,4.1292,4.1295,4.1253,4.1253,4.1253,0,4.1157,4.1173,4.1171,4.1183,4.1189,4.1183,4.1196,4.12,4.1208,4.1212,4.1206,4.1225,4.1227,4.1245,4.1252,4.1255,4.1258,4.125,4.1279,4.1282,4.1284,4.1293,4.1297,4.1254,4.1254,4.1254,4.1254,0,4.1185,4.1196,4.1206,4.1216,4.1223,4.1235,4.1236,4.1243,4.124,4.1241,4.1256,4.126,4.1268,4.1272,4.127,4.129,4.1287,4.128,4.1268,4.1289,4.1298,4.1301,4.1256,4.1255,4.1255,4.1255,0,0,4.1212,4.1223,4.1227,4.1232,4.1239,4.1248,4.126,4.127,4.1276,4.1283,4.1293,4.1306,4.1301,4.1305,4.1303,4.1312,4.1333,4.1304,4.1304,4.131,4.1357,4.1362,4.1366,4.133,4.133,4.1331,4.1356,0,4.1235,4.1258,4.1258,4.1279,4.129,4.1285,4.1296,4.1302,4.1304,4.1313,4.1314,4.1324,4.1315,4.1318,4.1327,4.1329,4.1343,4.1327,4.1339,4.134,4.1338,4.137,4.1375,4.1399,4.136,4.136,4.1361,0,4.1263,4.1273,4.1295,4.1303,4.1308,4.1318,4.1327,4.1336,4.1343,4.1344,4.135,4.1347,4.136,4.1348,4.1366,4.1356,4.1361,4.1363,4.1363,4.1364,4.1351,4.1371,4.1406,4.141,4.1366,4.1365,4.1365,0,4.1281,4.1299,4.1316,4.132,4.1329,4.1337,4.1341,4.1347,4.1354,4.1362,4.1366,4.1375,4.138,4.1388,4.1387,4.1379,4.1405,4.1394,4.1406,4.1406,4.1411,4.1411,4.1447,4.1415,4.1415,4.1415,4.1415,0,4.1306,4.132,4.1324,4.1334,4.135,4.135,4.1366,4.1369,4.1375,4.1385,4.1382,4.1391,4.139,4.14,4.14,4.1415,4.1417,4.1418,4.1417,4.1418,4.1418,4.1421,4.1419,4.1416,4.1416,4.1415,4.1415,0,4.1329,4.1332,4.1349,4.1358,4.136,4.1371,4.1378,4.1388,4.139,4.1403,4.1406,4.1409,4.1421,4.1421,4.1434,4.1434,4.1452,4.145,4.145,4.145,4.1462,4.1461,4.1501,4.1507,4.1471,4.1472,4.1472,0,4.1344,4.1355,4.1365,4.1373,4.1378,4.1389,4.1396,4.1397,4.1405,4.1414,4.1423,4.1434,4.1443,4.1462,4.1465,4.1475,4.1473,4.1486,4.1474,4.1474,4.1473,4.1472,4.1473,4.1488,4.1489,4.1489,4.1489,0,4.1371,4.1373,4.1384,4.1396,4.1405,4.1414,4.1422,4.1428,4.143,4.1439,4.1451,4.1459,4.1473,4.1484,4.1494,4.1498,4.1494,4.1493,4.1497,4.1497,4.1497,4.1497,4.1457,4.1492,4.1492,4.1492,4.1491,4.1491,4.1391,4.1401,4.141,4.1423,4.143,4.1438,4.1448,4.1453,4.1463,4.1476,4.1475,4.1489,4.1497,4.151,4.1515,4.1525,4.152,4.1525,4.1526,4.1528,4.1529,4.1496,4.1527,4.1527,4.1527,4.1527,4.1527,0,4.1418,4.1425,4.1436,4.1449,4.146,4.1457,4.1466,4.1475,4.1487,4.1495,4.1505,4.152,4.1531,4.1536,4.1547,4.1554,4.1553,4.1557,4.1557,4.1558,4.1532,4.1529,4.1558,4.1558,4.1558,4.1558,4.1558,4.1558,4.1434,4.1451,4.1454,4.1475,4.1481,4.1496,4.1502,4.1509,4.1516,4.1533,4.1543,4.1547,4.1553,4.1565,4.1575,4.1577,4.1581,4.1586,4.1586,4.1562,4.1559,4.1556,4.1552,4.1587,4.1587,4.161,4.161,4.1611]}]]